Weather past 2 weeks in Saipan, Northern Mariana Islands

Now
88 °F

Sunny.


Feels Like: 100 °F
Forecast: 74 / 81 °F
Wind: 7 mph from Southeast

Location: Saipan International Airport

Current Time: Aug 22, 2014 at 2:36:03 PM

Latest Report: Aug 22, 2014 at 1:54 PM


Visibility: 10 mi

Pressure: 29.89 "Hg

Humidity: 70%

Dew point: 77 °F

Location of SaipanLocation

Historic Weather in Saipan — Graph

°F

Saipan temperature yesterday

Maximum temperature yesterday: 87 °F (at 2:54 PM)
Minimum temperature yesterday: 79 °F (at 2:54 AM)
Average temperature yesterday: 82 °F

Past Weeks' High & Low Weather Summary

 TemperatureHumidityPressure
High88 °F (Aug 10, 10:54 AM)100% (Aug 10, 8:30 PM)29.99 "Hg (Aug 10, 8:30 PM)
Low77 °F (Aug 17, 3:54 AM)67% (Aug 21, 2:54 PM)29.74 "Hg (Aug 11, 2:56 PM)
Average83 °F84%29.89 "Hg
* Reported Aug 7 12:54 PM — Aug 22 12:54 PM, Saipan, Weather by CustomWeather, © 2014

Note: Actual official high and low records may vary slightly from our data, if they occured in-between our weather recording intervals... More about our weather records

Advertising

Saipan weather history for previous 24 hours

 ConditionsComfort  
Time TempWeatherWind HumidityBarometerVisibility
12:54 PM
Aug 22
88 °FSunny.8 mph70%29.89 "Hg10 mi
11:54 AM87 °FPassing clouds.7 mph72%29.91 "Hg10 mi
10:54 AM88 °FPassing clouds.7 mph73%29.92 "Hg10 mi
9:54 AM87 °FScattered clouds.8 mph75%29.94 "Hg10 mi
8:54 AM84 °FScattered clouds.6 mph77%29.94 "Hg10 mi
7:54 AM84 °FBroken clouds.7 mph80%29.93 "Hg10 mi
6:54 AM82 °FScattered clouds.3 mph85%29.91 "Hg10 mi
5:54 AM80 °FPassing clouds.5 mph87%29.90 "Hg10 mi
4:54 AM80 °FPassing clouds.6 mph87%29.89 "Hg10 mi
3:54 AM79 °FPassing clouds.5 mph90%29.88 "Hg10 mi
2:54 AM79 °FPassing clouds.3 mph90%29.88 "Hg10 mi
1:54 AM80 °FClear.No wind87%29.89 "Hg10 mi
12:54 AM80 °FClear.No wind87%29.90 "Hg10 mi
11:54 PM
Aug 21
81 °FClear.No wind88%29.91 "Hg10 mi
10:54 PM80 °FClear.3 mph90%29.92 "Hg10 mi
9:54 PM80 °FClear.3 mph87%29.91 "Hg10 mi
8:54 PM81 °FClear.No wind85%29.90 "Hg10 mi
7:54 PM81 °FClear.No wind85%29.89 "Hg10 mi
6:54 PM80 °FPassing clouds.No wind87%29.88 "Hg10 mi
5:54 PM84 °FLight rain. Scattered clouds.No wind80%29.86 "Hg10 mi
5:12 PM84 °FScattered clouds.5 mph79%29.79 "Hg10 mi
4:54 PM84 °FMore clouds than sun.6 mph77%29.85 "Hg10 mi
3:54 PM86 °FScattered clouds.6 mph70%29.84 "Hg10 mi
2:54 PM87 °FScattered clouds.5 mph67%29.85 "Hg10 mi
Weather by CustomWeather, © 2014

See weather overviewHow to use our weather pages